Time,TemperatureF,DewpointF,PressureIn,WindDirection,WindDirectionDegrees,WindSpeedMPH,WindSpeedGustMPH,Humidity,HourlyPrecipIn,Conditions,Clouds,dailyrainin,SoftwareType,DateUTC
2013-09-11 00:00:00,77.9,66.1,29.95,South,189,0.0,0.0,67,0.00,,SCT033,0.00,VWS V15.00,2013-09-11 04:00:00,
2013-09-11 00:01:00,77.9,66.1,29.95,South,189,0.0,0.0,67,0.00,,CLR,0.00,VWS V14.01,2013-09-11 04:01:00,
2013-09-11 00:02:00,77.9,66.1,29.95,South,189,0.0,0.0,67,0.00,,CLR,0.00,VWS V14.01,2013-09-11 04:02:00,
2013-09-11 00:07:00,77.8,66.4,29.95,South,188,5.0,5.0,68,0.00,,CLR,0.00,VWS V14.01,2013-09-11 04:07:00,
2013-09-11 00:08:00,77.8,66.4,29.95,South,186,0.0,0.0,68,0.00,,CLR,0.00,VWS V14.01,2013-09-11 04:08:00,
2013-09-11 00:13:00,77.8,66.4,29.95,South,188,0.0,0.0,68,0.00,,CLR,0.00,VWS V14.01,2013-09-11 04:13:00,
2013-09-11 00:15:00,77.8,66.4,29.95,South,190,4.0,5.0,68,0.00,,SCT033,0.00,VWS V15.00,2013-09-11 04:15:00,
2013-09-11 00:18:00,77.7,66.3,29.95,South,178,0.0,5.0,68,0.00,,CLR,0.00,VWS V14.01,2013-09-11 04:18:00,
2013-09-11 00:23:00,77.7,66.3,29.95,SSW,199,0.0,1.0,68,0.00,,CLR,0.00,VWS V14.01,2013-09-11 04:23:00,
2013-09-11 00:28:00,77.7,66.3,29.95,SSW,207,0.0,0.0,68,0.00,,CLR,0.00,VWS V14.01,2013-09-11 04:28:00,
2013-09-11 00:30:00,77.7,66.3,29.95,SSW,207,0.0,0.0,68,0.00,,SCT033,0.00,VWS V15.00,2013-09-11 04:30:00,
2013-09-11 00:33:00,77.7,66.3,29.95,SSW,194,0.0,5.0,68,0.00,,CLR,0.00,VWS V14.01,2013-09-11 04:33:00,
2013-09-11 00:38:00,77.7,66.3,29.95,South,177,1.0,4.0,68,0.00,,CLR,0.00,VWS V14.01,2013-09-11 04:38:00,
2013-09-11 00:43:00,77.7,66.7,29.95,SSE,168,0.0,0.0,69,0.00,,CLR,0.00,VWS V14.01,2013-09-11 04:43:00,
2013-09-11 00:45:00,77.7,66.7,29.95,South,191,0.0,7.0,69,0.00,,SCT033,0.00,VWS V15.00,2013-09-11 04:45:00,
2013-09-11 00:48:00,77.6,66.6,29.95,South,179,0.0,0.0,69,0.00,,CLR,0.00,VWS V14.01,2013-09-11 04:48:00,
2013-09-11 00:53:00,77.6,66.6,29.95,SSW,192,0.0,0.0,69,0.00,,CLR,0.00,VWS V14.01,2013-09-11 04:53:00,
2013-09-11 00:54:00,77.6,66.6,29.95,South,187,5.0,5.0,69,0.00,,CLR,0.00,VWS V14.01,2013-09-11 04:54:00,
2013-09-11 00:59:00,77.7,66.7,29.95,SSW,203,1.0,6.0,69,0.00,,CLR,0.00,VWS V14.01,2013-09-11 04:59:00,
2013-09-11 01:00:00,77.7,66.7,29.95,SSW,194,3.0,5.0,69,0.00,,SCT033,0.00,VWS V15.00,2013-09-11 05:00:00,
2013-09-11 01:05:00,77.7,66.7,29.95,South,184,0.0,6.0,69,0.00,,CLR,0.00,VWS V14.01,2013-09-11 05:05:00,
2013-09-11 01:10:00,77.7,66.7,29.95,South,191,5.0,6.0,69,0.00,,CLR,0.00,VWS V14.01,2013-09-11 05:10:00,
2013-09-11 01:15:00,77.7,66.7,29.95,SSW,208,0.0,8.0,69,0.00,,CLR,0.00,VWS V14.01,2013-09-11 05:15:00,
2013-09-11 01:20:00,77.7,66.7,29.95,SSW,203,7.0,7.0,69,0.00,,CLR,0.00,VWS V14.01,2013-09-11 05:20:00,
2013-09-11 01:25:00,77.7,66.7,29.95,South,180,0.0,0.0,69,0.00,,CLR,0.00,VWS V14.01,2013-09-11 05:25:00,
2013-09-11 01:30:00,77.8,66.8,29.95,South,188,3.0,4.0,69,0.00,,CLR,0.00,VWS V14.01,2013-09-11 05:30:00,
2013-09-11 01:35:00,77.8,66.8,29.95,South,174,4.0,6.0,69,0.00,,CLR,0.00,VWS V14.01,2013-09-11 05:35:00,
2013-09-11 01:40:00,77.8,66.8,29.95,SSW,210,5.0,9.0,69,0.00,,CLR,0.00,VWS V14.01,2013-09-11 05:40:00,
2013-09-11 01:45:00,77.8,66.8,29.95,SSW,212,0.0,4.0,69,0.00,,CLR,0.00,VWS V14.01,2013-09-11 05:45:00,
2013-09-11 01:50:00,77.8,66.8,29.95,South,188,0.0,0.0,69,0.00,,CLR,0.00,VWS V14.01,2013-09-11 05:50:00,
2013-09-11 01:55:00,77.8,66.8,29.95,South,187,3.0,7.0,69,0.00,,CLR,0.00,VWS V14.01,2013-09-11 05:55:00,
2013-09-11 02:00:00,77.8,66.8,29.95,SSW,201,0.0,0.0,69,0.00,,CLR,0.00,VWS V14.01,2013-09-11 06:00:00,
2013-09-11 02:05:00,77.9,66.9,29.95,SSW,193,0.0,2.0,69,0.00,,CLR,0.00,VWS V14.01,2013-09-11 06:05:00,
2013-09-11 02:10:00,77.9,66.9,29.95,SSW,207,0.0,0.0,69,0.00,,CLR,0.00,VWS V14.01,2013-09-11 06:10:00,
2013-09-11 02:15:00,77.9,66.9,29.95,SSW,201,0.0,0.0,69,0.00,,CLR,0.00,VWS V14.01,2013-09-11 06:15:00,
2013-09-11 02:20:00,77.9,66.9,29.95,SSW,192,0.0,0.0,69,0.00,,CLR,0.00,VWS V14.01,2013-09-11 06:20:00,
2013-09-11 02:25:00,77.9,66.9,29.95,SSW,209,3.0,6.0,69,0.00,,CLR,0.00,VWS V14.01,2013-09-11 06:25:00,
2013-09-11 02:30:00,77.8,66.8,29.95,SSW,207,0.0,0.0,69,0.00,,SCT033,0.00,VWS V15.00,2013-09-11 06:30:00,
2013-09-11 02:31:00,77.8,66.8,29.95,SSW,207,0.0,0.0,69,0.00,,CLR,0.00,VWS V14.01,2013-09-11 06:31:00,
2013-09-11 02:36:00,77.8,66.8,29.95,SSW,207,1.0,5.0,69,0.00,,CLR,0.00,VWS V14.01,2013-09-11 06:36:00,
2013-09-11 02:41:00,77.8,66.8,29.95,SW,215,0.0,0.0,69,0.00,,CLR,0.00,VWS V14.01,2013-09-11 06:41:00,
2013-09-11 02:45:00,77.8,66.8,29.95,SSW,207,0.0,0.0,69,0.00,,SCT033,0.00,VWS V15.00,2013-09-11 06:45:00,
2013-09-11 02:46:00,77.8,66.8,29.95,SSW,206,0.0,0.0,69,0.00,,CLR,0.00,VWS V14.01,2013-09-11 06:46:00,
2013-09-11 02:51:00,77.9,66.9,29.95,SSW,195,0.0,3.0,69,0.00,,CLR,0.00,VWS V14.01,2013-09-11 06:51:00,
2013-09-11 02:56:00,77.8,66.8,29.95,South,188,0.0,3.0,69,0.00,,CLR,0.00,VWS V14.01,2013-09-11 06:56:00,
2013-09-11 03:00:00,77.9,66.9,29.95,South,188,3.0,7.0,69,0.00,,SCT033,0.00,VWS V15.00,2013-09-11 07:00:00,
2013-09-11 03:01:00,77.8,66.8,29.95,SSW,192,6.0,6.0,69,0.00,,CLR,0.00,VWS V14.01,2013-09-11 07:01:00,
2013-09-11 03:06:00,77.8,66.8,29.95,SSW,197,7.0,7.0,69,0.00,,CLR,0.00,VWS V14.01,2013-09-11 07:06:00,
2013-09-11 03:11:00,77.8,66.8,29.95,South,181,0.0,0.0,69,0.00,,CLR,0.00,VWS V14.01,2013-09-11 07:11:00,
2013-09-11 03:15:00,77.7,66.7,29.95,South,187,7.0,9.0,69,0.00,,SCT033,0.00,VWS V15.00,2013-09-11 07:15:00,
2013-09-11 03:16:00,77.7,66.7,29.95,South,186,0.0,7.0,69,0.00,,CLR,0.00,VWS V14.01,2013-09-11 07:16:00,
2013-09-11 03:21:00,77.7,67.1,29.95,SW,215,0.0,4.0,70,0.00,,CLR,0.00,VWS V14.01,2013-09-11 07:21:00,
2013-09-11 03:26:00,77.7,67.1,29.96,South,172,7.0,10.0,70,0.00,,CLR,0.00,VWS V14.01,2013-09-11 07:26:00,
2013-09-11 03:30:00,77.7,67.1,29.95,SSW,205,7.0,12.0,70,0.00,,SCT033,0.00,VWS V15.00,2013-09-11 07:30:00,
2013-09-11 03:31:00,77.7,66.7,29.95,South,176,2.0,10.0,69,0.00,,CLR,0.00,VWS V14.01,2013-09-11 07:31:00,
2013-09-11 03:36:00,78.0,67.0,29.95,SSW,208,0.0,0.0,69,0.00,,CLR,0.00,VWS V14.01,2013-09-11 07:36:00,
2013-09-11 03:41:00,78.1,67.1,29.95,South,182,0.0,0.0,69,0.00,,CLR,0.00,VWS V14.01,2013-09-11 07:41:00,
2013-09-11 03:45:00,78.2,66.8,29.95,SSW,196,0.0,0.0,68,0.00,,SCT033,0.00,VWS V15.00,2013-09-11 07:45:00,
2013-09-11 03:46:00,78.2,66.8,29.95,South,188,0.0,1.0,68,0.00,,CLR,0.00,VWS V14.01,2013-09-11 07:46:00,
2013-09-11 03:51:00,78.3,66.9,29.96,SSW,193,0.0,7.0,68,0.00,,CLR,0.00,VWS V14.01,2013-09-11 07:51:00,
2013-09-11 03:56:00,78.3,66.9,29.96,SSW,210,3.0,8.0,68,0.00,,CLR,0.00,VWS V14.01,2013-09-11 07:56:00,
2013-09-11 04:00:00,78.2,66.8,29.96,South,191,0.0,0.0,68,0.00,,SCT033,0.00,VWS V15.00,2013-09-11 08:00:00,
2013-09-11 04:01:00,78.2,66.8,29.96,SSW,194,0.0,0.0,68,0.00,,CLR,0.00,VWS V14.01,2013-09-11 08:01:00,
2013-09-11 04:06:00,78.1,66.7,29.96,SSW,195,0.0,0.0,68,0.00,,CLR,0.00,VWS V14.01,2013-09-11 08:06:00,
2013-09-11 04:11:00,78.0,66.6,29.96,WSW,257,0.0,0.0,68,0.00,,CLR,0.00,VWS V14.01,2013-09-11 08:11:00,
2013-09-11 04:15:00,78.0,67.0,29.96,West,272,0.0,0.0,69,0.00,,SCT033,0.00,VWS V15.00,2013-09-11 08:15:00,
2013-09-11 04:16:00,78.0,67.0,29.96,West,272,0.0,0.0,69,0.00,,CLR,0.00,VWS V14.01,2013-09-11 08:16:00,
2013-09-11 04:21:00,77.8,66.8,29.96,SSW,205,4.0,5.0,69,0.00,,CLR,0.00,VWS V14.01,2013-09-11 08:21:00,
2013-09-11 04:26:00,77.7,66.7,29.96,SSW,205,0.0,0.0,69,0.00,,CLR,0.00,VWS V14.01,2013-09-11 08:26:00,
2013-09-11 04:30:00,77.5,66.5,29.96,SSW,205,0.0,0.0,69,0.00,,SCT033,0.00,VWS V15.00,2013-09-11 08:30:00,
2013-09-11 04:31:00,77.5,66.5,29.96,SSW,204,0.0,1.0,69,0.00,,CLR,0.00,VWS V14.01,2013-09-11 08:31:00,
2013-09-11 04:36:00,77.3,66.8,29.96,SSW,205,0.0,0.0,70,0.00,,CLR,0.00,VWS V14.01,2013-09-11 08:36:00,
2013-09-11 04:41:00,77.1,66.6,29.96,South,186,0.0,1.0,70,0.00,,CLR,0.00,VWS V14.01,2013-09-11 08:41:00,
2013-09-11 04:45:00,77.0,66.5,29.96,South,186,0.0,0.0,70,0.00,,SCT033,0.00,VWS V15.00,2013-09-11 08:45:00,
2013-09-11 04:46:00,76.9,66.4,29.96,South,186,0.0,0.0,70,0.00,,CLR,0.00,VWS V14.01,2013-09-11 08:46:00,
2013-09-11 04:52:00,76.7,66.6,29.96,South,182,4.0,4.0,71,0.00,,CLR,0.00,VWS V14.01,2013-09-11 08:52:00,
2013-09-11 04:57:00,76.5,66.4,29.96,South,171,0.0,0.0,71,0.00,,CLR,0.00,VWS V14.01,2013-09-11 08:57:00,
2013-09-11 05:00:00,76.3,66.2,29.96,SSW,198,0.0,0.0,71,0.00,,SCT033,0.00,VWS V15.00,2013-09-11 09:00:00,
2013-09-11 05:02:00,76.3,66.2,29.96,South,188,0.0,0.0,71,0.00,,CLR,0.00,VWS V14.01,2013-09-11 09:02:00,
2013-09-11 05:07:00,76.2,66.5,29.96,South,186,0.0,4.0,72,0.00,,CLR,0.00,VWS V14.01,2013-09-11 09:07:00,
2013-09-11 05:12:00,76.0,66.3,29.96,South,178,0.0,0.0,72,0.00,,FEW085,0.00,VWS V14.01,2013-09-11 09:12:00,
2013-09-11 05:15:00,75.9,66.2,29.96,South,179,0.0,0.0,72,0.00,,SCT033,0.00,VWS V15.00,2013-09-11 09:15:00,
2013-09-11 05:17:00,75.9,66.6,29.96,SSW,199,0.0,0.0,73,0.00,,FEW085,0.00,VWS V14.01,2013-09-11 09:17:00,
2013-09-11 05:22:00,75.8,66.5,29.96,SSW,199,0.0,0.0,73,0.00,,FEW085,0.00,VWS V14.01,2013-09-11 09:22:00,
2013-09-11 05:27:00,75.7,66.4,29.96,SSW,199,0.0,0.0,73,0.00,,FEW085,0.00,VWS V14.01,2013-09-11 09:27:00,
2013-09-11 05:30:00,75.6,66.3,29.96,SSW,199,0.0,0.0,73,0.00,,SCT033,0.00,VWS V15.00,2013-09-11 09:30:00,
2013-09-11 05:32:00,75.6,66.3,29.96,SSW,199,0.0,0.0,73,0.00,,FEW085,0.00,VWS V14.01,2013-09-11 09:32:00,
2013-09-11 05:37:00,75.4,66.2,29.96,SSW,197,0.0,0.0,73,0.00,,FEW085,0.00,VWS V14.01,2013-09-11 09:37:00,
2013-09-11 05:42:00,75.3,66.1,29.96,SSW,197,0.0,0.0,73,0.00,,FEW085,0.00,VWS V14.01,2013-09-11 09:42:00,
2013-09-11 05:45:00,75.2,66.0,29.96,SSW,197,0.0,0.0,73,0.00,,SCT033,0.00,VWS V15.00,2013-09-11 09:45:00,
2013-09-11 05:47:00,75.1,66.2,29.96,SSW,197,0.0,0.0,74,0.00,,FEW085,0.00,VWS V14.01,2013-09-11 09:47:00,
2013-09-11 05:52:00,74.9,66.1,29.96,SSW,197,0.0,0.0,74,0.00,,FEW085,0.00,VWS V14.01,2013-09-11 09:52:00,
2013-09-11 05:57:00,74.7,66.3,29.96,SSW,197,0.0,0.0,75,0.00,,FEW085,0.00,VWS V14.01,2013-09-11 09:57:00,
2013-09-11 06:00:00,74.6,66.2,29.96,SSW,197,0.0,0.0,75,0.00,,SCT033,0.00,VWS V15.00,2013-09-11 10:00:00,
2013-09-11 06:02:00,74.5,66.1,29.96,SSW,197,0.0,0.0,75,0.00,,FEW085,0.00,VWS V14.01,2013-09-11 10:02:00,
2013-09-11 06:07:00,74.3,65.9,29.97,SSW,197,0.0,0.0,75,0.00,,FEW085,0.00,VWS V14.01,2013-09-11 10:07:00,
2013-09-11 06:12:00,74.2,65.8,29.97,SSW,197,0.0,0.0,75,0.00,,SCT090,0.00,VWS V14.01,2013-09-11 10:12:00,
2013-09-11 06:15:00,74.0,65.6,29.97,SSW,197,0.0,0.0,75,0.00,,SCT033,0.00,VWS V15.00,2013-09-11 10:15:00,
2013-09-11 06:17:00,74.0,65.6,29.97,SSW,197,0.0,0.0,75,0.00,,SCT090,0.00,VWS V14.01,2013-09-11 10:17:00,
2013-09-11 06:22:00,73.8,65.8,29.97,SSW,197,0.0,0.0,76,0.00,,SCT090,0.00,VWS V14.01,2013-09-11 10:22:00,
2013-09-11 06:27:00,73.6,65.9,29.97,SSW,197,0.0,0.0,77,0.00,,SCT090,0.00,VWS V14.01,2013-09-11 10:27:00,
2013-09-11 06:30:00,73.6,66.3,29.97,SSW,197,0.0,0.0,78,0.00,,SCT033,0.00,VWS V15.00,2013-09-11 10:30:00,
2013-09-11 06:32:00,73.5,66.2,29.97,SSW,197,0.0,0.0,78,0.00,,SCT090,0.00,VWS V14.01,2013-09-11 10:32:00,
2013-09-11 06:38:00,73.4,66.5,29.97,SSW,197,0.0,0.0,79,0.00,,SCT090,0.00,VWS V14.01,2013-09-11 10:38:00,
2013-09-11 06:43:00,73.3,66.4,29.97,SSW,197,0.0,0.0,79,0.00,,SCT090,0.00,VWS V14.01,2013-09-11 10:43:00,
2013-09-11 06:45:00,73.3,66.4,29.97,SSW,197,0.0,0.0,79,0.00,,SCT033,0.00,VWS V15.00,2013-09-11 10:45:00,
2013-09-11 06:48:00,73.3,66.8,29.97,SSW,197,0.0,0.0,80,0.00,,SCT090,0.00,VWS V14.01,2013-09-11 10:48:00,
2013-09-11 06:53:00,73.5,67.3,29.98,SW,218,0.0,0.0,81,0.00,,SCT090,0.00,VWS V14.01,2013-09-11 10:53:00,
2013-09-11 06:58:00,73.8,67.6,29.98,WSW,241,0.0,0.0,81,0.00,,SCT090,0.00,VWS V14.01,2013-09-11 10:58:00,
2013-09-11 07:00:00,73.9,67.7,29.98,SW,236,3.0,5.0,81,0.00,,SCT033,0.00,VWS V15.00,2013-09-11 11:00:00,
2013-09-11 07:03:00,74.0,67.8,29.98,SW,234,0.0,3.0,81,0.00,,SCT100,0.00,VWS V14.01,2013-09-11 11:03:00,
2013-09-11 07:08:00,74.4,68.2,29.98,SW,232,0.0,1.0,81,0.00,,SCT100,0.00,VWS V14.01,2013-09-11 11:08:00,
2013-09-11 07:13:00,74.6,68.4,29.98,SW,225,0.0,0.0,81,0.00,,SCT100,0.00,VWS V14.01,2013-09-11 11:13:00,
2013-09-11 07:15:00,74.7,68.5,29.97,SW,230,0.0,6.0,81,0.00,,SCT033,0.00,VWS V15.00,2013-09-11 11:15:00,
2013-09-11 07:18:00,74.8,68.6,29.98,SW,230,0.0,0.0,81,0.00,,SCT100,0.00,VWS V14.01,2013-09-11 11:18:00,
2013-09-11 07:23:00,74.9,68.3,29.98,SW,230,3.0,6.0,80,0.00,,SCT100,0.00,VWS V14.01,2013-09-11 11:23:00,
2013-09-11 07:28:00,75.0,68.4,29.98,SW,230,0.0,4.0,80,0.00,,SCT100,0.00,VWS V14.01,2013-09-11 11:28:00,
2013-09-11 07:30:00,75.1,68.5,29.98,SW,230,0.0,0.0,80,0.00,,SCT033,0.00,VWS V15.00,2013-09-11 11:30:00,
2013-09-11 07:33:00,75.1,68.5,29.99,SW,228,0.0,0.0,80,0.00,,SCT100,0.00,VWS V14.01,2013-09-11 11:33:00,
2013-09-11 07:38:00,75.2,69.0,29.99,SW,228,0.0,0.0,81,0.00,,SCT100,0.00,VWS V14.01,2013-09-11 11:38:00,
2013-09-11 07:43:00,75.3,69.1,29.99,SW,228,2.0,5.0,81,0.00,,SCT100,0.00,VWS V14.01,2013-09-11 11:43:00,
2013-09-11 07:45:00,75.3,69.1,29.99,SW,232,0.0,3.0,81,0.00,,SCT033,0.00,VWS V15.00,2013-09-11 11:45:00,
2013-09-11 07:48:00,75.4,69.2,29.99,SW,233,0.0,0.0,81,0.00,,SCT100,0.00,VWS V14.01,2013-09-11 11:48:00,
2013-09-11 07:53:00,75.4,69.2,29.99,SW,236,0.0,0.0,81,0.00,,SCT100,0.00,VWS V14.01,2013-09-11 11:53:00,
2013-09-11 07:58:00,75.5,69.3,29.99,WSW,241,0.0,0.0,81,0.00,,SCT100,0.00,VWS V14.01,2013-09-11 11:58:00,
2013-09-11 08:00:00,75.5,69.3,29.99,WSW,244,1.0,4.0,81,0.00,,SCT033,0.00,VWS V15.00,2013-09-11 12:00:00,
2013-09-11 08:03:00,75.6,69.4,29.99,SW,236,2.0,4.0,81,0.00,,BKN250,0.00,VWS V14.01,2013-09-11 12:03:00,
2013-09-11 08:08:00,75.6,69.4,29.99,SW,229,2.0,3.0,81,0.00,,BKN250,0.00,VWS V14.01,2013-09-11 12:08:00,
2013-09-11 08:13:00,75.6,69.4,30.00,SW,229,0.0,2.0,81,0.00,,BKN250,0.00,VWS V14.01,2013-09-11 12:13:00,
2013-09-11 08:15:00,75.6,69.4,30.00,WSW,237,2.0,3.0,81,0.00,,SCT033,0.00,VWS V15.00,2013-09-11 12:15:00,
2013-09-11 08:18:00,75.6,69.4,30.00,WSW,245,2.0,3.0,81,0.00,,BKN250,0.00,VWS V14.01,2013-09-11 12:18:00,
2013-09-11 08:24:00,75.7,69.5,30.00,WSW,256,0.0,4.0,81,0.00,,BKN250,0.00,VWS V14.01,2013-09-11 12:24:00,
2013-09-11 08:29:00,75.8,69.9,30.01,West,259,4.0,4.0,82,0.00,,BKN250,0.00,VWS V14.01,2013-09-11 12:29:00,
2013-09-11 08:30:00,75.9,70.0,30.01,West,261,3.0,3.0,82,0.00,,SCT033,0.00,VWS V15.00,2013-09-11 12:30:00,
2013-09-11 08:34:00,76.0,70.1,30.01,WSW,257,3.0,8.0,82,0.00,,BKN250,0.00,VWS V14.01,2013-09-11 12:34:00,
2013-09-11 08:39:00,76.1,70.2,30.01,West,277,3.0,5.0,82,0.00,,BKN250,0.00,VWS V14.01,2013-09-11 12:39:00,
2013-09-11 08:44:00,76.1,70.2,30.01,West,276,2.0,2.0,82,0.00,,BKN250,0.00,VWS V14.01,2013-09-11 12:44:00,
2013-09-11 08:45:00,76.1,70.2,30.01,West,269,3.0,5.0,82,0.00,,SCT033,0.00,VWS V15.00,2013-09-11 12:45:00,
2013-09-11 08:49:00,76.2,70.3,30.01,West,272,0.0,1.0,82,0.00,,BKN250,0.00,VWS V14.01,2013-09-11 12:49:00,
2013-09-11 08:54:00,76.4,70.5,30.01,West,260,2.0,5.0,82,0.00,,BKN250,0.00,VWS V14.01,2013-09-11 12:54:00,
2013-09-11 08:59:00,76.6,70.7,30.00,WSW,247,0.0,3.0,82,0.00,,BKN250,0.00,VWS V14.01,2013-09-11 12:59:00,
2013-09-11 09:00:00,76.6,70.3,30.00,WSW,247,0.0,0.0,81,0.00,,SCT033,0.00,VWS V15.00,2013-09-11 13:00:00,
2013-09-11 09:04:00,76.7,70.4,30.00,WSW,240,4.0,7.0,81,0.00,,BKN250,0.00,VWS V14.01,2013-09-11 13:04:00,
2013-09-11 09:09:00,76.8,70.5,30.01,West,261,5.0,5.0,81,0.00,,BKN250,0.00,VWS V14.01,2013-09-11 13:09:00,
2013-09-11 09:14:00,76.8,70.5,30.02,West,281,3.0,4.0,81,0.00,,BKN250,0.00,VWS V14.01,2013-09-11 13:14:00,
2013-09-11 09:15:00,76.8,70.5,30.01,WNW,284,4.0,6.0,81,0.00,,SCT033,0.00,VWS V15.00,2013-09-11 13:15:00,
2013-09-11 09:19:00,76.7,70.4,30.02,WNW,292,0.0,2.0,81,0.00,,BKN250,0.00,VWS V14.01,2013-09-11 13:19:00,
2013-09-11 09:24:00,76.6,70.3,30.01,WNW,291,3.0,4.0,81,0.00,,BKN250,0.00,VWS V14.01,2013-09-11 13:24:00,
2013-09-11 09:29:00,76.5,70.6,30.01,WNW,286,3.0,6.0,82,0.00,,BKN250,0.00,VWS V14.01,2013-09-11 13:29:00,
2013-09-11 09:30:00,76.5,70.6,30.01,WNW,286,0.0,4.0,82,0.00,,SCT033,0.00,VWS V15.00,2013-09-11 13:30:00,
2013-09-11 09:34:00,76.5,70.6,30.01,WNW,286,0.0,4.0,82,0.00,,BKN250,0.00,VWS V14.01,2013-09-11 13:34:00,
2013-09-11 09:39:00,76.5,70.6,30.01,West,278,2.0,4.0,82,0.00,,BKN250,0.00,VWS V14.01,2013-09-11 13:39:00,
2013-09-11 09:44:00,76.7,70.8,30.01,West,278,0.0,0.0,82,0.00,,BKN250,0.00,VWS V14.01,2013-09-11 13:44:00,
2013-09-11 09:45:00,76.7,70.8,30.01,West,278,0.0,0.0,82,0.00,,SCT033,0.00,VWS V15.00,2013-09-11 13:45:00,
2013-09-11 09:49:00,76.9,71.0,30.01,West,278,0.0,0.0,82,0.00,,BKN250,0.00,VWS V14.01,2013-09-11 13:49:00,
2013-09-11 09:54:00,77.0,70.7,30.01,West,278,0.0,0.0,81,0.00,,BKN250,0.00,VWS V14.01,2013-09-11 13:54:00,
2013-09-11 09:59:00,77.1,70.8,30.01,West,278,0.0,0.0,81,0.00,,BKN250,0.00,VWS V14.01,2013-09-11 13:59:00,
2013-09-11 10:00:00,77.1,70.8,30.01,West,278,0.0,0.0,81,0.00,,SCT033,0.00,VWS V15.00,2013-09-11 14:00:00,
2013-09-11 10:04:00,77.2,70.9,30.01,West,278,0.0,0.0,81,0.00,,BKN250,0.00,VWS V14.01,2013-09-11 14:04:00,
2013-09-11 10:09:00,77.3,71.0,30.03,West,275,6.0,8.0,81,0.00,,BKN250,0.00,VWS V14.01,2013-09-11 14:09:00,
2013-09-11 10:14:00,77.4,70.8,30.03,West,270,4.0,8.0,80,0.00,,BKN250,0.00,VWS V14.01,2013-09-11 14:14:00,
2013-09-11 10:15:00,77.4,70.8,30.03,West,278,9.0,9.0,80,0.00,,SCT033,0.00,VWS V15.00,2013-09-11 14:15:00,
2013-09-11 10:19:00,77.3,70.7,30.05,WNW,294,7.0,9.0,80,0.00,,BKN250,0.00,VWS V14.01,2013-09-11 14:19:00,
2013-09-11 10:24:00,77.2,70.9,30.04,WNW,295,8.0,8.0,81,0.00,,BKN250,0.00,VWS V14.01,2013-09-11 14:24:00,
2013-09-11 10:30:00,77.1,70.8,30.03,WNW,288,0.0,4.0,81,0.00,,BKN250,0.00,VWS V14.01,2013-09-11 14:30:00,
2013-09-11 10:35:00,77.1,71.2,30.03,West,267,0.0,0.0,82,0.00,,BKN250,0.00,VWS V14.01,2013-09-11 14:35:00,
2013-09-11 10:40:00,77.2,71.3,30.02,West,268,0.0,0.0,82,0.00,,BKN250,0.00,VWS V14.01,2013-09-11 14:40:00,
2013-09-11 10:45:00,77.6,71.3,30.02,WNW,303,4.0,5.0,81,0.00,,BKN250,0.00,VWS V14.01,2013-09-11 14:45:00,
2013-09-11 10:50:00,77.9,70.1,30.02,WNW,285,0.0,0.0,77,0.00,,BKN250,0.00,VWS V14.01,2013-09-11 14:50:00,
2013-09-11 10:56:00,78.4,69.8,30.03,WSW,255,0.0,7.0,75,0.00,,BKN250,0.00,VWS V14.01,2013-09-11 14:56:00,
2013-09-11 11:00:00,78.9,70.3,30.02,WSW,257,0.0,0.0,75,0.00,,SCT033,0.00,VWS V15.00,2013-09-11 15:00:00,
2013-09-11 11:01:00,78.9,70.3,30.02,WSW,257,0.0,0.0,75,0.00,,-RA,0.00,VWS V14.01,2013-09-11 15:01:00,
2013-09-11 11:06:00,79.2,69.8,30.01,WSW,257,0.0,0.0,73,0.00,,-RA,0.00,VWS V14.01,2013-09-11 15:06:00,
2013-09-11 11:11:00,79.5,69.3,30.01,WSW,257,0.0,0.0,71,0.00,,-RA,0.00,VWS V14.01,2013-09-11 15:11:00,
2013-09-11 11:15:00,79.7,68.6,30.01,WSW,257,0.0,0.0,69,0.00,,SCT033,0.00,VWS V15.00,2013-09-11 15:15:00,
2013-09-11 11:16:00,79.7,68.2,30.01,WSW,257,0.0,0.0,68,0.00,,-RA,0.00,VWS V14.01,2013-09-11 15:16:00,
2013-09-11 11:21:00,80.1,69.0,30.01,WSW,257,0.0,0.0,69,0.00,,-RA,0.00,VWS V14.01,2013-09-11 15:21:00,
2013-09-11 11:26:00,80.1,68.6,30.01,WSW,257,0.0,0.0,68,0.00,,-RA,0.00,VWS V14.01,2013-09-11 15:26:00,
2013-09-11 11:30:00,80.1,69.0,30.01,WSW,257,0.0,0.0,69,0.00,,SCT033,0.00,VWS V15.00,2013-09-11 15:30:00,
2013-09-11 11:31:00,80.1,69.0,30.01,WSW,257,0.0,0.0,69,0.00,,-RA,0.00,VWS V14.01,2013-09-11 15:31:00,
2013-09-11 11:36:00,80.3,68.3,30.01,WSW,257,0.0,0.0,67,0.00,,-RA,0.00,VWS V14.01,2013-09-11 15:36:00,
2013-09-11 11:41:00,80.5,68.1,30.00,WSW,250,0.0,0.0,66,0.00,,-RA,0.00,VWS V14.01,2013-09-11 15:41:00,
2013-09-11 11:45:00,80.8,69.3,30.00,WSW,250,0.0,0.0,68,0.00,,SCT033,0.00,VWS V15.00,2013-09-11 15:45:00,
2013-09-11 11:46:00,80.8,69.3,30.00,WSW,250,0.0,0.0,68,0.00,,-RA,0.00,VWS V14.01,2013-09-11 15:46:00,
2013-09-11 11:51:00,81.0,69.4,30.00,WSW,250,0.0,0.0,68,0.00,,-RA,0.00,VWS V14.01,2013-09-11 15:51:00,
2013-09-11 11:56:00,81.1,68.7,29.99,WSW,250,0.0,4.0,66,0.00,,-RA,0.00,VWS V14.01,2013-09-11 15:56:00,
2013-09-11 12:00:00,81.2,68.8,29.99,WSW,250,0.0,1.0,66,0.00,,SCT033,0.00,VWS V15.00,2013-09-11 16:00:00,
2013-09-11 12:01:00,81.3,69.3,29.99,WSW,249,2.0,2.0,67,0.00,,-RA,0.00,VWS V14.01,2013-09-11 16:01:00,
2013-09-11 12:06:00,81.5,69.5,29.99,WSW,238,0.0,0.0,67,0.00,,-RA,0.00,VWS V14.01,2013-09-11 16:06:00,
2013-09-11 12:11:00,81.8,69.3,29.98,SW,226,0.0,4.0,66,0.00,,BKN220,0.00,VWS V14.01,2013-09-11 16:11:00,
2013-09-11 12:15:00,82.0,69.5,29.98,SW,225,0.0,0.0,66,0.00,,SCT033,0.00,VWS V15.00,2013-09-11 16:15:00,
2013-09-11 12:16:00,82.1,69.6,29.98,SW,225,0.0,1.0,66,0.00,,BKN220,0.00,VWS V14.01,2013-09-11 16:16:00,
2013-09-11 12:21:00,82.4,69.5,29.98,SW,225,0.0,0.0,65,0.00,,BKN220,0.00,VWS V14.01,2013-09-11 16:21:00,
2013-09-11 12:26:00,82.7,69.3,29.98,SW,224,0.0,1.0,64,0.00,,BKN220,0.00,VWS V14.01,2013-09-11 16:26:00,
2013-09-11 12:30:00,82.8,69.4,29.98,SW,224,0.0,0.0,64,0.00,,SCT033,0.00,VWS V15.00,2013-09-11 16:30:00,
2013-09-11 12:31:00,82.8,69.4,29.98,SW,224,0.0,0.0,64,0.00,,BKN220,0.00,VWS V14.01,2013-09-11 16:31:00,
2013-09-11 12:36:00,83.0,69.6,29.99,SW,224,0.0,0.0,64,0.00,,BKN220,0.00,VWS V14.01,2013-09-11 16:36:00,
2013-09-11 12:42:00,83.0,69.6,29.99,SW,224,0.0,1.0,64,0.00,,BKN220,0.00,VWS V14.01,2013-09-11 16:42:00,
2013-09-11 12:45:00,83.0,69.6,29.99,SW,224,0.0,0.0,64,0.00,,SCT033,0.00,VWS V15.00,2013-09-11 16:45:00,
2013-09-11 12:47:00,83.0,70.0,29.99,SW,224,0.0,1.0,65,0.00,,BKN220,0.00,VWS V14.01,2013-09-11 16:47:00,
2013-09-11 12:52:00,83.1,70.1,29.99,SW,224,0.0,0.0,65,0.00,,BKN220,0.00,VWS V14.01,2013-09-11 16:52:00,
2013-09-11 12:57:00,83.3,70.3,29.99,SW,224,0.0,1.0,65,0.00,,BKN220,0.00,VWS V14.01,2013-09-11 16:57:00,
2013-09-11 13:00:00,83.5,70.5,30.00,SW,236,4.0,7.0,65,0.00,,SCT033,0.00,VWS V15.00,2013-09-11 17:00:00,
2013-09-11 13:02:00,83.5,70.1,30.00,SW,232,0.0,7.0,64,0.00,,BKN220,0.00,VWS V14.01,2013-09-11 17:02:00,
2013-09-11 13:07:00,83.7,69.3,29.99,SW,232,0.0,5.0,62,0.00,,BKN220,0.00,VWS V14.01,2013-09-11 17:07:00,
2013-09-11 13:12:00,83.8,69.9,29.99,SW,225,0.0,4.0,63,0.00,,BKN220,0.00,VWS V14.01,2013-09-11 17:12:00,
2013-09-11 13:15:00,84.0,69.6,29.99,SW,225,2.0,2.0,62,0.00,,SCT033,0.00,VWS V15.00,2013-09-11 17:15:00,
2013-09-11 13:17:00,84.1,70.2,29.99,SW,225,5.0,6.0,63,0.00,,BKN220,0.00,VWS V14.01,2013-09-11 17:17:00,
2013-09-11 13:22:00,84.2,69.3,29.99,SSW,211,7.0,8.0,61,0.00,,BKN220,0.00,VWS V14.01,2013-09-11 17:22:00,
2013-09-11 13:27:00,84.2,68.8,29.99,SW,224,0.0,6.0,60,0.00,,BKN220,0.00,VWS V14.01,2013-09-11 17:27:00,
2013-09-11 13:30:00,84.1,68.7,29.99,SSW,197,6.0,7.0,60,0.00,,SCT033,0.00,VWS V15.00,2013-09-11 17:30:00,
2013-09-11 13:32:00,84.0,68.6,29.99,SSW,201,3.0,4.0,60,0.00,,BKN220,0.00,VWS V14.01,2013-09-11 17:32:00,
2013-09-11 13:37:00,83.6,66.8,29.99,SW,226,10.0,10.0,57,0.00,,BKN220,0.00,VWS V14.01,2013-09-11 17:37:00,
2013-09-11 13:42:00,83.4,66.6,29.99,SW,226,3.0,3.0,57,0.00,,BKN220,0.00,VWS V14.01,2013-09-11 17:42:00,
2013-09-11 13:45:00,83.5,69.1,29.99,SW,226,0.0,4.0,62,0.00,,SCT033,0.00,VWS V15.00,2013-09-11 17:45:00,
2013-09-11 13:47:00,83.6,67.8,29.99,SW,226,1.0,3.0,59,0.00,,BKN220,0.00,VWS V14.01,2013-09-11 17:47:00,
2013-09-11 13:52:00,83.8,66.4,29.99,SW,232,0.0,5.0,56,0.00,,BKN220,0.00,VWS V14.01,2013-09-11 17:52:00,
2013-09-11 13:57:00,84.3,67.4,29.99,SW,232,0.0,1.0,57,0.00,,BKN220,0.00,VWS V14.01,2013-09-11 17:57:00,
2013-09-11 14:00:00,84.6,67.7,29.99,SSW,209,7.0,9.0,57,0.00,,SCT033,0.00,VWS V15.00,2013-09-11 18:00:00,
2013-09-11 14:02:00,84.8,67.4,29.99,SW,222,4.0,10.0,56,0.00,,BKN220,0.00,VWS V14.01,2013-09-11 18:02:00,
2013-09-11 14:07:00,84.9,68.5,29.99,SW,230,0.0,0.0,58,0.00,,BKN220,0.00,VWS V14.01,2013-09-11 18:07:00,
2013-09-11 14:12:00,84.7,67.3,29.99,SW,226,0.0,8.0,56,0.00,,BKN200,0.00,VWS V14.01,2013-09-11 18:12:00,
2013-09-11 14:15:00,84.6,67.7,29.99,SW,231,0.0,8.0,57,0.00,,SCT033,0.00,VWS V15.00,2013-09-11 18:15:00,
2013-09-11 14:17:00,84.7,67.8,29.99,SSW,211,0.0,6.0,57,0.00,,BKN200,0.00,VWS V14.01,2013-09-11 18:17:00,
2013-09-11 14:22:00,85.2,68.3,29.99,SW,230,0.0,7.0,57,0.00,,BKN200,0.00,VWS V14.01,2013-09-11 18:22:00,
2013-09-11 14:27:00,85.5,65.9,29.99,WSW,247,9.0,11.0,52,0.00,,BKN200,0.00,VWS V14.01,2013-09-11 18:27:00,
2013-09-11 14:30:00,85.6,66.0,29.99,SW,228,9.0,15.0,52,0.00,,SCT033,0.00,VWS V15.00,2013-09-11 18:30:00,
2013-09-11 14:32:00,85.6,64.8,29.99,WSW,249,0.0,10.0,50,0.00,,BKN200,0.00,VWS V14.01,2013-09-11 18:32:00,
2013-09-11 14:37:00,85.5,64.2,29.99,SW,215,8.0,13.0,49,0.00,,BKN200,0.00,VWS V14.01,2013-09-11 18:37:00,
2013-09-11 14:42:00,85.2,63.9,29.99,WSW,253,11.0,13.0,49,0.00,,BKN200,0.00,VWS V14.01,2013-09-11 18:42:00,
2013-09-11 14:45:00,85.1,64.4,29.99,WSW,256,5.0,10.0,50,0.00,,SCT033,0.00,VWS V15.00,2013-09-11 18:45:00,
2013-09-11 14:47:00,85.0,64.9,29.99,West,262,0.0,8.0,51,0.00,,BKN200,0.00,VWS V14.01,2013-09-11 18:47:00,
2013-09-11 14:52:00,84.8,64.7,29.99,West,270,6.0,9.0,51,0.00,,BKN200,0.00,VWS V14.01,2013-09-11 18:52:00,
2013-09-11 14:57:00,84.5,63.8,29.99,West,266,9.0,13.0,50,0.00,,BKN200,0.00,VWS V14.01,2013-09-11 18:57:00,
2013-09-11 15:00:00,84.3,64.2,29.99,WNW,294,0.0,9.0,51,0.00,,SCT033,0.00,VWS V15.00,2013-09-11 19:00:00,
2013-09-11 15:02:00,84.2,64.1,29.98,West,269,5.0,7.0,51,0.00,,BKN200,0.00,VWS V14.01,2013-09-11 19:02:00,
2013-09-11 15:07:00,84.0,64.5,29.98,WSW,249,8.0,8.0,52,0.00,,BKN200,0.00,VWS V14.01,2013-09-11 19:07:00,
2013-09-11 15:12:00,83.8,64.3,29.99,West,263,5.0,5.0,52,0.00,,BKN200,0.00,VWS V14.01,2013-09-11 19:12:00,
2013-09-11 15:15:00,83.8,63.8,29.99,WSW,240,12.0,14.0,51,0.00,,SCT033,0.00,VWS V15.00,2013-09-11 19:15:00,
2013-09-11 15:18:00,83.7,63.7,29.99,West,274,4.0,9.0,51,0.00,,BKN200,0.00,VWS V14.01,2013-09-11 19:18:00,
2013-09-11 15:23:00,83.4,64.0,29.99,WNW,288,0.0,0.0,52,0.00,,BKN200,0.00,VWS V14.01,2013-09-11 19:23:00,
2013-09-11 15:28:00,83.3,63.9,29.99,WSW,249,5.0,12.0,52,0.00,,BKN200,0.00,VWS V14.01,2013-09-11 19:28:00,
2013-09-11 15:30:00,83.2,63.8,29.99,WSW,253,0.0,10.0,52,0.00,,SCT033,0.00,VWS V15.00,2013-09-11 19:30:00,
2013-09-11 15:33:00,83.1,63.7,29.99,West,270,5.0,11.0,52,0.00,,BKN200,0.00,VWS V14.01,2013-09-11 19:33:00,
2013-09-11 15:38:00,82.7,63.3,29.99,WSW,257,9.0,12.0,52,0.00,,BKN200,0.00,VWS V14.01,2013-09-11 19:38:00,
2013-09-11 15:43:00,82.5,63.7,29.99,WSW,254,11.0,18.0,53,0.00,,BKN200,0.00,VWS V14.01,2013-09-11 19:43:00,
2013-09-11 15:45:00,82.3,63.5,29.99,West,265,8.0,16.0,53,0.00,,SCT033,0.00,VWS V15.00,2013-09-11 19:45:00,
2013-09-11 15:48:00,82.1,63.8,29.99,WSW,247,4.0,8.0,54,0.00,,BKN200,0.00,VWS V14.01,2013-09-11 19:48:00,
2013-09-11 15:53:00,81.9,64.2,29.99,West,272,8.0,8.0,55,0.00,,BKN200,0.00,VWS V14.01,2013-09-11 19:53:00,
2013-09-11 15:58:00,81.7,64.5,29.99,WSW,243,2.0,9.0,56,0.00,,BKN200,0.00,VWS V14.01,2013-09-11 19:58:00,
2013-09-11 16:00:00,81.7,65.0,29.99,WSW,251,7.0,8.0,57,0.00,,SCT033,0.00,VWS V15.00,2013-09-11 20:00:00,
2013-09-11 16:03:00,81.6,64.9,29.99,West,278,2.0,10.0,57,0.00,,-RA,0.00,VWS V14.01,2013-09-11 20:03:00,
2013-09-11 16:08:00,81.4,64.7,29.99,West,272,7.0,12.0,57,0.00,,-RA,0.00,VWS V14.01,2013-09-11 20:08:00,
2013-09-11 16:13:00,81.2,65.5,30.00,West,265,5.0,7.0,59,0.00,,-RA,0.00,VWS V14.01,2013-09-11 20:13:00,
2013-09-11 16:15:00,81.1,65.4,30.00,WSW,245,3.0,4.0,59,0.00,,SCT033,0.00,VWS V15.00,2013-09-11 20:15:00,
2013-09-11 16:18:00,81.1,65.4,30.00,WSW,248,6.0,15.0,59,0.00,,-RA,0.00,VWS V14.01,2013-09-11 20:18:00,
2013-09-11 16:23:00,80.9,65.7,30.00,West,268,13.0,13.0,60,0.00,,-RA,0.00,VWS V14.01,2013-09-11 20:23:00,
2013-09-11 16:28:00,80.8,65.6,30.00,WSW,245,6.0,9.0,60,0.00,,-RA,0.00,VWS V14.01,2013-09-11 20:28:00,
2013-09-11 16:30:00,80.7,65.1,30.00,West,266,5.0,8.0,59,0.00,,SCT033,0.00,VWS V15.00,2013-09-11 20:30:00,
2013-09-11 16:33:00,80.7,65.5,30.00,West,269,0.0,0.0,60,0.00,,-RA,0.00,VWS V14.01,2013-09-11 20:33:00,
2013-09-11 16:38:00,80.5,65.3,30.00,West,261,6.0,6.0,60,0.00,,-RA,0.00,VWS V14.01,2013-09-11 20:38:00,
2013-09-11 16:43:00,80.3,65.6,30.00,West,264,6.0,15.0,61,0.00,,-RA,0.00,VWS V14.01,2013-09-11 20:43:00,
2013-09-11 16:45:00,80.1,65.0,30.00,WNW,284,0.0,10.0,60,0.00,,SCT033,0.00,VWS V15.00,2013-09-11 20:45:00,
2013-09-11 16:48:00,80.1,65.4,30.00,West,265,8.0,10.0,61,0.00,,-RA,0.00,VWS V14.01,2013-09-11 20:48:00,
2013-09-11 16:53:00,79.9,65.3,30.00,West,276,5.0,6.0,61,0.00,,-RA,0.00,VWS V14.01,2013-09-11 20:53:00,
2013-09-11 16:58:00,79.6,65.0,30.00,West,269,5.0,7.0,61,0.00,,-RA,0.00,VWS V14.01,2013-09-11 20:58:00,
2013-09-11 17:00:00,79.5,65.3,30.00,West,265,2.0,9.0,62,0.00,,SCT033,0.00,VWS V15.00,2013-09-11 21:00:00,
2013-09-11 17:03:00,79.3,65.2,30.00,SW,236,0.0,15.0,62,0.00,,-RA,0.00,VWS V14.01,2013-09-11 21:03:00,
2013-09-11 17:08:00,78.7,66.4,30.00,WSW,240,5.0,11.0,66,0.00,,-RA,0.00,VWS V14.01,2013-09-11 21:08:00,
2013-09-11 17:13:00,77.9,67.3,29.99,West,268,0.0,0.0,70,0.00,,BKN200,0.00,VWS V14.01,2013-09-11 21:13:00,
2013-09-11 17:15:00,77.7,67.1,29.99,West,268,0.0,0.0,70,0.00,,SCT033,0.00,VWS V15.00,2013-09-11 21:15:00,
2013-09-11 17:18:00,77.3,67.6,29.98,WNW,286,0.0,0.0,72,0.00,,BKN200,0.00,VWS V14.01,2013-09-11 21:18:00,
2013-09-11 17:23:00,76.9,67.2,29.98,WNW,300,0.0,2.0,72,0.00,,BKN200,0.00,VWS V14.01,2013-09-11 21:23:00,
2013-09-11 17:28:00,76.5,67.2,29.98,West,270,0.0,1.0,73,0.01,,BKN200,0.01,VWS V14.01,2013-09-11 21:28:00,
2013-09-11 17:30:00,76.4,67.5,29.98,West,261,0.0,0.0,74,0.01,,SCT033,0.01,VWS V15.00,2013-09-11 21:30:00,
2013-09-11 17:33:00,76.2,67.7,29.98,WSW,255,0.0,0.0,75,0.01,,BKN200,0.01,VWS V14.01,2013-09-11 21:33:00,
2013-09-11 17:38:00,76.0,67.9,29.98,WSW,252,0.0,0.0,76,0.01,,BKN200,0.01,VWS V14.01,2013-09-11 21:38:00,
2013-09-11 17:43:00,75.9,68.2,29.98,WSW,248,0.0,0.0,77,0.01,,BKN200,0.01,VWS V14.01,2013-09-11 21:43:00,
2013-09-11 17:45:00,75.9,68.2,29.98,WSW,247,0.0,0.0,77,0.01,,SCT033,0.01,VWS V15.00,2013-09-11 21:45:00,
2013-09-11 17:48:00,75.8,68.1,29.98,WSW,247,0.0,0.0,77,0.01,,BKN200,0.01,VWS V14.01,2013-09-11 21:48:00,
2013-09-11 17:54:00,75.7,68.0,29.97,WSW,247,0.0,0.0,77,0.01,,BKN200,0.01,VWS V14.01,2013-09-11 21:54:00,
2013-09-11 17:59:00,75.6,67.5,29.97,WSW,256,0.0,0.0,76,0.01,,BKN200,0.01,VWS V14.01,2013-09-11 21:59:00,
2013-09-11 18:00:00,75.6,67.5,29.97,WSW,256,0.0,0.0,76,0.01,,SCT033,0.01,VWS V15.00,2013-09-11 22:00:00,
2013-09-11 18:04:00,75.6,67.9,29.97,WSW,256,0.0,0.0,77,0.01,,BKN200,0.01,VWS V14.01,2013-09-11 22:04:00,
2013-09-11 18:09:00,75.6,67.9,29.97,West,275,0.0,0.0,77,0.01,,BKN200,0.01,VWS V14.01,2013-09-11 22:09:00,
2013-09-11 18:14:00,75.7,68.0,29.97,West,259,3.0,4.0,77,0.01,,BKN200,0.01,VWS V14.01,2013-09-11 22:14:00,
2013-09-11 18:15:00,75.7,68.0,29.97,West,260,3.0,4.0,77,0.01,,SCT033,0.01,VWS V15.00,2013-09-11 22:15:00,
2013-09-11 18:19:00,75.8,68.1,29.96,West,265,3.0,3.0,77,0.01,,BKN200,0.01,VWS V14.01,2013-09-11 22:19:00,
2013-09-11 18:24:00,75.9,68.2,29.96,WNW,287,1.0,4.0,77,0.01,,BKN200,0.01,VWS V14.01,2013-09-11 22:24:00,
2013-09-11 18:29:00,75.9,67.8,29.96,West,280,0.0,4.0,76,0.01,,BKN200,0.01,VWS V14.01,2013-09-11 22:29:00,
2013-09-11 18:30:00,75.9,67.8,29.96,West,280,0.0,0.0,76,0.01,,SCT033,0.01,VWS V15.00,2013-09-11 22:30:00,
2013-09-11 18:34:00,75.9,67.8,29.96,WSW,238,2.0,4.0,76,0.00,,BKN200,0.01,VWS V14.01,2013-09-11 22:34:00,
2013-09-11 18:39:00,75.9,67.8,29.97,West,269,0.0,0.0,76,0.00,,BKN200,0.01,VWS V14.01,2013-09-11 22:39:00,
2013-09-11 18:44:00,75.8,67.7,29.96,West,259,0.0,3.0,76,0.00,,BKN200,0.01,VWS V14.01,2013-09-11 22:44:00,
2013-09-11 18:45:00,75.8,67.3,29.96,West,261,0.0,0.0,75,0.00,,SCT033,0.01,VWS V15.00,2013-09-11 22:45:00,
2013-09-11 18:49:00,75.7,67.2,29.96,WNW,286,0.0,0.0,75,0.00,,BKN200,0.01,VWS V14.01,2013-09-11 22:49:00,
2013-09-11 18:54:00,75.6,67.1,29.96,West,265,0.0,0.0,75,0.00,,BKN200,0.01,VWS V14.01,2013-09-11 22:54:00,
2013-09-11 18:59:00,75.6,67.1,29.97,West,265,0.0,0.0,75,0.00,,BKN200,0.01,VWS V14.01,2013-09-11 22:59:00,
2013-09-11 19:00:00,75.6,67.1,29.97,West,265,0.0,0.0,75,0.00,,SCT033,0.01,VWS V15.00,2013-09-11 23:00:00,
2013-09-11 19:04:00,75.6,67.5,29.96,West,265,0.0,0.0,76,0.00,,BKN200,0.01,VWS V14.01,2013-09-11 23:04:00,
2013-09-11 19:09:00,75.6,67.5,29.96,West,265,0.0,1.0,76,0.00,,BKN200,0.01,VWS V14.01,2013-09-11 23:09:00,
2013-09-11 19:14:00,75.6,67.5,29.96,West,263,0.0,0.0,76,0.00,,BKN200,0.01,VWS V14.01,2013-09-11 23:14:00,
2013-09-11 19:15:00,75.6,67.5,29.96,West,263,0.0,0.0,76,0.00,,SCT033,0.01,VWS V15.00,2013-09-11 23:15:00,
2013-09-11 19:19:00,75.6,67.5,29.97,West,263,0.0,0.0,76,0.00,,BKN200,0.01,VWS V14.01,2013-09-11 23:19:00,
2013-09-11 19:24:00,75.6,67.5,29.97,WSW,251,0.0,3.0,76,0.00,,BKN200,0.01,VWS V14.01,2013-09-11 23:24:00,
2013-09-11 19:30:00,75.5,67.4,29.97,WSW,251,0.0,0.0,76,0.00,,BKN200,0.01,VWS V14.01,2013-09-11 23:30:00,
2013-09-11 19:35:00,75.5,67.4,29.97,WSW,251,0.0,0.0,76,0.00,,BKN200,0.01,VWS V14.01,2013-09-11 23:35:00,
2013-09-11 19:40:00,75.4,67.3,29.96,WSW,251,0.0,0.0,76,0.00,,BKN200,0.01,VWS V14.01,2013-09-11 23:40:00,
2013-09-11 19:45:00,75.3,67.2,29.96,WSW,251,0.0,0.0,76,0.00,,BKN200,0.01,VWS V14.01,2013-09-11 23:45:00,
2013-09-11 19:50:00,75.1,67.0,29.97,WSW,251,0.0,0.0,76,0.00,,BKN200,0.01,VWS V14.01,2013-09-11 23:50:00,
2013-09-11 19:55:00,75.0,67.3,29.96,WSW,251,0.0,0.0,77,0.00,,BKN200,0.01,VWS V14.01,2013-09-11 23:55:00,
2013-09-11 20:00:00,74.8,67.1,29.96,WSW,251,0.0,0.0,77,0.00,,BKN200,0.01,VWS V14.01,2013-09-12 00:00:00,
2013-09-11 20:05:00,74.7,67.0,29.96,WSW,251,0.0,0.0,77,0.00,,BKN200,0.01,VWS V14.01,2013-09-12 00:05:00,
2013-09-11 20:10:00,74.5,66.8,29.96,WSW,251,0.0,0.0,77,0.00,,BKN200,0.01,VWS V14.01,2013-09-12 00:10:00,
2013-09-11 20:15:00,74.2,66.5,29.96,WSW,251,0.0,0.0,77,0.00,,BKN200,0.01,VWS V14.01,2013-09-12 00:15:00,
2013-09-11 20:20:00,74.0,66.3,29.96,WSW,251,0.0,0.0,77,0.00,,BKN200,0.01,VWS V14.01,2013-09-12 00:20:00,
2013-09-11 20:25:00,73.8,66.5,29.96,WSW,251,0.0,0.0,78,0.00,,BKN200,0.01,VWS V14.01,2013-09-12 00:25:00,
2013-09-11 20:30:00,73.6,66.3,29.96,WSW,251,0.0,0.0,78,0.00,,BKN200,0.01,VWS V14.01,2013-09-12 00:30:00,
2013-09-11 20:35:00,73.3,66.0,29.96,WSW,251,0.0,0.0,78,0.00,,BKN200,0.01,VWS V14.01,2013-09-12 00:35:00,
2013-09-11 20:40:00,73.1,66.2,29.97,WSW,251,0.0,0.0,79,0.00,,BKN200,0.01,VWS V14.01,2013-09-12 00:40:00,
2013-09-11 20:45:00,72.8,66.3,29.97,WSW,251,0.0,0.0,80,0.00,,BKN200,0.01,VWS V14.01,2013-09-12 00:45:00,
2013-09-11 20:50:00,72.6,66.1,29.97,WSW,251,0.0,0.0,80,0.00,,BKN200,0.01,VWS V14.01,2013-09-12 00:50:00,
2013-09-11 20:56:00,72.3,66.2,29.97,WSW,251,0.0,0.0,81,0.00,,BKN200,0.01,VWS V14.01,2013-09-12 00:56:00,
2013-09-11 21:00:00,72.1,66.3,29.97,WSW,251,0.0,0.0,82,0.00,,SCT033,0.01,VWS V15.00,2013-09-12 01:00:00,
2013-09-11 21:01:00,72.1,65.9,29.97,WSW,251,0.0,0.0,81,0.00,,BKN200,0.01,VWS V14.01,2013-09-12 01:01:00,
2013-09-11 21:06:00,71.9,66.1,29.97,WSW,251,0.0,0.0,82,0.00,,BKN200,0.01,VWS V14.01,2013-09-12 01:06:00,
2013-09-11 21:11:00,71.7,65.9,29.97,WSW,251,0.0,0.0,82,0.00,,BKN200,0.01,VWS V14.01,2013-09-12 01:11:00,
2013-09-11 21:15:00,71.5,65.7,29.97,WSW,251,0.0,0.0,82,0.00,,SCT033,0.01,VWS V15.00,2013-09-12 01:15:00,
2013-09-11 21:16:00,71.5,65.7,29.97,WSW,251,0.0,0.0,82,0.00,,BKN200,0.01,VWS V14.01,2013-09-12 01:16:00,
2013-09-11 21:21:00,71.3,65.5,29.97,WSW,251,0.0,2.0,82,0.00,,BKN200,0.01,VWS V14.01,2013-09-12 01:21:00,
2013-09-11 21:26:00,71.1,65.3,29.97,WSW,251,0.0,1.0,82,0.00,,BKN200,0.01,VWS V14.01,2013-09-12 01:26:00,
2013-09-11 21:30:00,71.0,65.6,29.97,WSW,251,0.0,0.0,83,0.00,,SCT033,0.01,VWS V15.00,2013-09-12 01:30:00,
2013-09-11 21:31:00,71.0,65.6,29.97,WSW,251,0.0,0.0,83,0.00,,BKN200,0.01,VWS V14.01,2013-09-12 01:31:00,
2013-09-11 21:36:00,70.8,65.4,29.97,WSW,251,0.0,0.0,83,0.00,,BKN200,0.01,VWS V14.01,2013-09-12 01:36:00,
2013-09-11 21:41:00,70.7,65.3,29.97,WSW,251,0.0,0.0,83,0.00,,BKN200,0.01,VWS V14.01,2013-09-12 01:41:00,
2013-09-11 21:45:00,70.6,65.2,29.97,WSW,251,0.0,0.0,83,0.00,,SCT033,0.01,VWS V15.00,2013-09-12 01:45:00,
2013-09-11 21:46:00,70.5,65.1,29.97,WSW,251,0.0,0.0,83,0.00,,BKN200,0.01,VWS V14.01,2013-09-12 01:46:00,
2013-09-11 21:51:00,70.4,65.0,29.97,WSW,251,0.0,0.0,83,0.00,,BKN200,0.01,VWS V14.01,2013-09-12 01:51:00,
2013-09-11 21:56:00,70.2,65.1,29.97,WSW,251,0.0,0.0,84,0.00,,BKN200,0.01,VWS V14.01,2013-09-12 01:56:00,
2013-09-11 22:00:00,70.1,65.1,29.97,WSW,251,0.0,0.0,84,0.00,,SCT033,0.01,VWS V15.00,2013-09-12 02:00:00,
2013-09-11 22:01:00,70.0,64.9,29.97,WSW,251,0.0,0.0,84,0.00,,BKN200,0.01,VWS V14.01,2013-09-12 02:01:00,
2013-09-11 22:06:00,69.9,64.8,29.97,WSW,251,0.0,0.0,84,0.00,,BKN200,0.01,VWS V14.01,2013-09-12 02:06:00,
2013-09-11 22:11:00,69.7,64.7,29.97,WSW,251,0.0,0.0,84,0.00,,BKN140,0.01,VWS V14.01,2013-09-12 02:11:00,
2013-09-11 22:15:00,69.6,64.6,29.97,WSW,251,0.0,0.0,84,0.00,,SCT033,0.01,VWS V15.00,2013-09-12 02:15:00,
2013-09-11 22:17:00,69.6,64.6,29.97,WSW,251,0.0,0.0,84,0.00,,BKN140,0.01,VWS V14.01,2013-09-12 02:17:00,
2013-09-11 22:22:00,69.4,64.4,29.97,WSW,251,0.0,0.0,84,0.00,,BKN140,0.01,VWS V14.01,2013-09-12 02:22:00,
2013-09-11 22:27:00,69.2,64.2,29.97,WSW,251,0.0,0.0,84,0.00,,BKN140,0.01,VWS V14.01,2013-09-12 02:27:00,
2013-09-11 22:30:00,69.0,64.0,29.97,WSW,251,0.0,0.0,84,0.00,,SCT033,0.01,VWS V15.00,2013-09-12 02:30:00,
2013-09-11 22:32:00,69.0,64.0,29.96,WSW,251,0.0,0.0,84,0.00,,BKN140,0.01,VWS V14.01,2013-09-12 02:32:00,
2013-09-11 22:37:00,68.7,63.7,29.96,WSW,251,0.0,0.0,84,0.00,,BKN140,0.01,VWS V14.01,2013-09-12 02:37:00,
2013-09-11 22:42:00,68.5,63.5,29.96,WSW,251,0.0,0.0,84,0.00,,BKN140,0.01,VWS V14.01,2013-09-12 02:42:00,
2013-09-11 22:45:00,68.4,63.4,29.96,WSW,251,0.0,0.0,84,0.00,,SCT033,0.01,VWS V15.00,2013-09-12 02:45:00,
2013-09-11 22:47:00,68.4,63.4,29.96,WSW,251,0.0,0.0,84,0.00,,BKN140,0.01,VWS V14.01,2013-09-12 02:47:00,
2013-09-11 22:52:00,68.1,63.1,29.96,WSW,251,0.0,0.0,84,0.00,,BKN140,0.01,VWS V14.01,2013-09-12 02:52:00,
2013-09-11 22:58:00,68.0,63.3,29.96,WSW,251,0.0,0.0,85,0.00,,BKN140,0.01,VWS V14.01,2013-09-12 02:58:00,
2013-09-11 23:00:00,67.8,62.8,29.96,WSW,251,0.0,0.0,84,0.00,,SCT033,0.01,VWS V15.00,2013-09-12 03:00:00,
2013-09-11 23:03:00,67.7,63.0,29.96,WSW,251,0.0,0.0,85,0.00,,BKN100,0.01,VWS V14.01,2013-09-12 03:03:00,
2013-09-11 23:08:00,67.5,62.8,29.96,WSW,251,0.0,0.0,85,0.00,,BKN100,0.01,VWS V14.01,2013-09-12 03:08:00,
2013-09-11 23:13:00,67.3,62.6,29.96,WSW,251,0.0,0.0,85,0.00,,BKN100,0.01,VWS V14.01,2013-09-12 03:13:00,
2013-09-11 23:15:00,67.2,62.2,29.96,WSW,251,0.0,0.0,84,0.00,,SCT033,0.01,VWS V15.00,2013-09-12 03:15:00,
2013-09-11 23:18:00,67.0,62.3,29.96,WSW,251,0.0,0.0,85,0.00,,BKN100,0.01,VWS V14.01,2013-09-12 03:18:00,
2013-09-11 23:23:00,66.8,62.2,29.96,WSW,251,0.0,0.0,85,0.00,,BKN100,0.01,VWS V14.01,2013-09-12 03:23:00,
2013-09-11 23:28:00,66.5,61.9,29.96,WSW,251,0.0,0.0,85,0.00,,BKN100,0.01,VWS V14.01,2013-09-12 03:28:00,
2013-09-11 23:30:00,66.4,61.4,29.96,WSW,251,0.0,0.0,84,0.00,,SCT033,0.01,VWS V15.00,2013-09-12 03:30:00,
2013-09-11 23:33:00,66.3,61.7,29.96,WSW,251,0.0,0.0,85,0.00,,BKN100,0.01,VWS V14.01,2013-09-12 03:33:00,
2013-09-11 23:38:00,66.2,61.6,29.96,WSW,251,0.0,0.0,85,0.00,,BKN100,0.01,VWS V14.01,2013-09-12 03:38:00,
2013-09-11 23:43:00,66.1,61.8,29.96,WSW,251,0.0,0.0,86,0.00,,BKN100,0.01,VWS V14.01,2013-09-12 03:43:00,
2013-09-11 23:45:00,66.0,61.7,29.96,WSW,251,0.0,0.0,86,0.00,,SCT033,0.01,VWS V15.00,2013-09-12 03:45:00,
2013-09-11 23:48:00,66.0,61.7,29.96,WSW,251,0.0,0.0,86,0.00,,BKN100,0.01,VWS V14.01,2013-09-12 03:48:00,
2013-09-11 23:54:00,65.9,61.6,29.96,WSW,251,0.0,0.0,86,0.00,,BKN100,0.01,VWS V14.01,2013-09-12 03:54:00,
2013-09-11 23:59:00,65.9,61.9,29.95,WSW,251,0.0,0.0,87,0.00,,BKN100,0.01,VWS V14.01,2013-09-12 03:59:00,